EW1088 Weather Reports


time (UTC)temp
C
wind
direction
speed
KPH
gust
KPH
rain 1hr
cm
rain 24hr
cm
rain mn
cm
humidity
%
barometer
mb
20260507034315 6 297 3.2 8.0 0.00 0.08 0.08 84 1013.4
20260507033814 6 297 3.2 8.0 0.00 0.08 0.08 84 1013.4
20260507033311 6 301 3.2 6.4 0.00 0.08 0.08 83 1013.4
20260507032815 6 293 3.2 6.4 0.00 0.08 0.08 83 1013.3
20260507032810 6 310 3.2 6.4 0.00 0.08 0.08 83 1013.3
20260507032416 6 293 3.2 6.4 0.00 0.08 0.08 83 1013.3
20260507031313 6 293 1.6 6.4 0.00 0.08 0.08 83 1013.2
20260507031309 7 299 1.6 4.8 0.00 0.08 0.08 84 1013.2
20260507030312 7 299 1.6 6.4 0.00 0.08 0.08 85 1013.2
20260507030308 7 299 1.6 6.4 0.00 0.08 0.08 85 1013.2
20260507025306 7 332 1.6 8.0 0.00 0.08 0.08 86 1013.2
20260507024804 7 331 3.2 8.0 0.00 0.08 0.08 85 1013.1
20260507024305 7 332 3.2 8.0 0.00 0.08 0.08 85 1013.1
20260507023805 7 331 3.2 8.0 0.00 0.08 0.08 84 1013.0
20260507023304 7 326 3.2 8.0 0.00 0.08 0.08 83 1013.1
20260507022804 7 351 1.6 8.0 0.00 0.08 0.08 83 1013.0
20260507022308 7 268 3.2 8.0 0.00 0.08 0.08 76 1012.9
20260507022306 7 321 3.2 8.0 0.00 0.08 0.08 80 1013.0
20260507021302 7 283 1.6 6.4 0.00 0.08 0.08 76 1012.9
20260507020800 7 264 3.2 6.4 0.00 0.08 0.08 74 1012.9
20260507020258 7 247 3.2 8.0 0.00 0.08 0.08 75 1012.9
20260507015759 7 242 1.6 8.0 0.00 0.08 0.08 75 1012.9
20260507015306 7 212 1.6 8.0 0.00 0.08 0.08 76 1012.8
20260507015258 7 253 1.6 6.4 0.00 0.08 0.08 76 1012.8
20260507014904 7 270 1.6 8.0 0.00 0.08 0.08 80 1012.8
20260507013758 7 217 1.6 8.0 0.03 0.08 0.08 81 1012.8
20260507013302 6 253 3.2 6.4 0.03 0.08 0.08 83 1012.7
20260507013258 7 252 1.6 8.0 0.03 0.08 0.08 81 1012.7
20260507012904 6 253 3.2 6.4 0.03 0.08 0.08 85 1012.7
20260507011759 6 253 1.6 4.8 0.03 0.08 0.08 86 1012.7
20260507011257 6 204 1.6 4.8 0.03 0.08 0.08 87 1012.7
20260507010758 6 204 1.6 4.8 0.03 0.08 0.08 86 1012.8
20260507010258 6 204 1.6 4.8 0.05 0.08 0.08 86 1012.7
20260507005756 6 179 1.6 4.8 0.05 0.08 0.08 86 1012.8
20260507005256 6 179 1.6 6.4 0.05 0.08 0.08 85 1012.7
20260507004757 6 356 0.0 3.2 0.08 0.08 0.08 87 1012.8
20260507004752 6 347 1.6 6.4 0.05 0.08 0.08 85 1012.8
20260507003751 6 356 1.6 4.8 0.05 0.05 0.05 88 1012.7
20260507003255 6 351 0.0 3.2 0.05 0.05 0.05 86 1012.6
20260507003251 6 356 1.6 4.8 0.05 0.05 0.05 87 1012.7
20260507002252 6 351 1.6 4.8 0.05 0.05 0.05 86 1012.7
20260507001752 6 351 1.6 4.8 0.05 0.05 0.05 86 1012.6
20260507001252 6 356 1.6 4.8 0.05 0.05 0.05 85 1012.6
20260507000752 6 299 1.6 4.8 0.05 0.05 0.05 86 1012.5
20260507000251 6 299 1.6 4.8 0.03 0.03 0.03 84 1012.5
20260506235751 6 299 3.2 4.8 0.03 0.03 0.03 83 1012.5
20260506235747 7 297 4.8 8.0 0.03 0.03 0.03 80 1012.4
20260506235350 7 299 1.6 4.8 0.03 0.03 0.03 82 1012.4
20260506234247 7 293 6.4 12.9 0.00 0.00 0.03 78 1012.3
20260506234243 7 287 4.8 12.9 0.00 0.00 0.00 75 1012.3
20260506233242 7 283 6.4 12.9 0.00 0.00 0.00 74 1012.2
20260506232742 7 301 6.4 12.9 0.00 0.00 0.00 73 1012.2
20260506232242 8 289 3.2 9.7 0.00 0.00 0.00 73 1012.1
20260506231747 8 250 3.2 9.7 0.00 0.00 0.00 70 1012.0
20260506231742 8 266 3.2 9.7 0.00 0.00 0.00 70 1012.0
20260506230736 8 264 1.6 9.7 0.00 0.00 0.00 71 1012.0
20260506230236 8 253 1.6 6.4 0.00 0.00 0.00 74 1012.0
20260506225736 7 212 3.2 9.7 0.00 0.00 0.00 72 1012.0
20260506225236 7 247 4.8 9.7 0.00 0.00 0.00 70 1011.9
20260506224738 8 249 6.4 12.9 0.00 0.00 0.00 72 1011.9
20260506224734 8 231 6.4 12.9 0.00 0.00 0.00 71 1011.9
20260506223734 8 280 6.4 11.3 0.00 0.00 0.00 69 1011.9
20260506223234 8 241 4.8 9.7 0.00 0.00 0.00 68 1011.7
20260506222734 8 285 6.4 14.5 0.00 0.00 0.00 68 1011.7
20260506222236 8 293 6.4 16.1 0.00 0.00 0.00 67 1011.7
20260506221735 8 273 6.4 16.1 0.00 0.00 0.00 66 1011.6
20260506221234 8 251 4.8 12.9 0.00 0.00 0.00 65 1011.6
20260506220734 9 209 4.8 12.9 0.00 0.00 0.00 65 1011.5
20260506220234 8 227 6.4 12.9 0.00 0.00 0.00 67 1011.6
20260506215734 9 268 8.0 12.9 0.00 0.00 0.00 66 1011.5
20260506215234 8 303 8.0 12.9 0.00 0.00 0.00 67 1011.5
20260506214733 8 279 8.0 12.9 0.00 0.00 0.00 68 1011.5
20260506214235 8 244 8.0 14.5 0.00 0.00 0.00 67 1011.4
20260506213737 8 282 8.0 16.1 0.00 0.00 0.00 69 1011.3
20260506213733 8 261 8.0 14.5 0.00 0.00 0.00 68 1011.4
20260506212732 8 266 6.4 16.1 0.00 0.00 0.00 67 1011.2
20260506212231 8 299 6.4 11.3 0.00 0.00 0.00 66 1011.2
20260506211731 8 285 4.8 11.3 0.00 0.00 0.00 65 1011.1
20260506211232 8 287 4.8 11.3 0.00 0.00 0.00 66 1011.1
20260506210732 8 289 6.4 11.3 0.00 0.00 0.00 66 1011.1
20260506210232 8 264 6.4 11.3 0.00 0.00 0.00 66 1011.0
20260506205732 8 282 4.8 9.7 0.00 0.00 0.00 65 1011.0
20260506205232 8 233 4.8 16.1 0.00 0.00 0.00 64 1011.1
20260506204731 9 265 3.2 16.1 0.00 0.00 0.00 64 1011.0
20260506204236 9 228 6.4 16.1 0.00 0.00 0.00 64 1010.9
20260506204231 9 201 4.8 11.3 0.00 0.00 0.00 63 1010.9
20260506203837 9 195 6.4 16.1 0.00 0.00 0.00 64 1010.9
20260506202732 9 158 4.8 11.3 0.00 0.00 0.00 60 1010.9
20260506202232 10 236 3.2 11.3 0.00 0.00 0.00 61 1010.8
20260506201736 9 197 3.2 11.3 0.00 0.00 0.00 63 1010.8
20260506201732 10 170 3.2 6.4 0.00 0.00 0.00 62 1010.8
20260506200732 9 202 4.8 11.3 0.00 0.00 0.00 65 1010.7
20260506200232 8 185 4.8 14.5 0.00 0.00 0.00 64 1010.7
20260506195732 8 291 4.8 14.5 0.00 0.00 0.00 64 1010.7
20260506195232 8 215 3.2 8.0 0.00 0.00 0.00 65 1010.7
20260506194732 8 319 3.2 9.7 0.00 0.00 0.00 66 1010.6
20260506194232 8 194 3.2 9.7 0.00 0.00 0.00 67 1010.7
20260506193731 8 243 4.8 9.7 0.00 0.00 0.00 67 1010.7
20260506193231 8 264 3.2 8.0 0.00 0.00 0.00 66 1010.6
20260506192731 8 198 1.6 8.0 0.00 0.00 0.00 69 1010.6
20260506192236 8 95 1.6 8.0 0.00 0.00 0.00 68 1010.6
20260506192232 8 85 1.6 8.0 0.00 0.00 0.00 69 1010.6
20260506191232 8 156 3.2 9.7 0.00 0.00 0.00 68 1010.6
20260506190732 8 133 3.2 9.7 0.00 0.00 0.00 67 1010.6
20260506190231 8 20 4.8 9.7 0.00 0.00 0.00 67 1010.6
20260506185732 8 145 4.8 11.3 0.00 0.00 0.00 66 1010.6
20260506185231 8 110 4.8 11.3 0.00 0.00 0.00 68 1010.6
20260506184729 8 196 4.8 12.9 0.00 0.00 0.00 67 1010.6
20260506184228 7 128 4.8 12.9 0.00 0.00 0.00 69 1010.6
20260506183732 7 92 4.8 9.7 0.00 0.00 0.00 70 1010.5
20260506183728 7 121 4.8 11.3 0.00 0.00 0.00 70 1010.5
20260506182727 7 106 4.8 11.3 0.00 0.00 0.00 70 1010.6
20260506182232 7 202 3.2 8.0 0.00 0.00 0.00 71 1010.5
20260506182228 7 159 4.8 11.3 0.00 0.00 0.00 70 1010.6
20260506181228 7 107 3.2 8.0 0.00 0.00 0.00 72 1010.4
20260506180728 7 198 3.2 8.0 0.00 0.00 0.00 73 1010.4
20260506180231 7 99 3.2 8.0 0.00 0.00 0.00 73 1010.4
20260506180227 7 145 3.2 8.0 0.00 0.00 0.00 73 1010.3
20260506175227 6 110 1.6 8.0 0.00 0.00 0.00 74 1010.4
20260506174725 6 179 1.6 4.8 0.00 0.00 0.00 76 1010.4
20260506174226 6 119 1.6 4.8 0.00 0.00 0.00 78 1010.4
20260506173725 6 101 1.6 4.8 0.00 0.00 0.00 78 1010.4
20260506173225 6 101 1.6 4.8 0.00 0.00 0.00 80 1010.4
20260506172723 6 101 1.6 4.8 0.00 0.00 0.00 81 1010.4
20260506172225 5 101 3.2 4.8 0.00 0.00 0.00 82 1010.4
20260506172221 6 101 1.6 4.8 0.00 0.00 0.00 82 1010.4
20260506171221 5 101 3.2 4.8 0.00 0.00 0.00 83 1010.4
20260506170722 5 328 1.6 4.8 0.00 0.00 0.00 84 1010.3
20260506170222 5 328 0.0 4.8 0.00 0.00 0.00 86 1010.3
20260506165718 5 328 0.0 3.2 0.00 0.00 0.00 88 1010.3
20260506165218 5 328 1.6 4.8 0.00 0.00 0.00 88 1010.2
20260506164717 5 328 0.0 4.8 0.00 0.00 0.00 89 1010.3
20260506164218 4 328 1.6 4.8 0.00 0.00 0.00 90 1010.2
20260506164214 4 328 0.0 3.2 0.00 0.00 0.00 90 1010.3
20260506163213 4 328 1.6 4.8 0.00 0.00 0.00 90 1010.2
20260506162711 4 328 0.0 4.8 0.00 0.00 0.00 91 1010.2
20260506162211 4 305 0.0 1.6 0.00 0.00 0.00 91 1010.2
20260506161705 3 306 0.0 1.6 0.00 0.00 0.00 91 1010.2
20260506161204 3 306 0.0 1.6 0.00 0.00 0.00 91 1010.3
20260506160704 3 306 0.0 3.2 0.00 0.00 0.00 92 1010.2
20260506160201 3 306 0.0 3.2 0.00 0.00 0.00 92 1010.2
20260506155702 3 306 0.0 4.8 0.00 0.00 0.00 92 1010.2
20260506155203 3 306 1.6 4.8 0.00 0.00 0.00 92 1010.1
20260506155158 3 306 0.0 3.2 0.00 0.00 0.00 93 1010.1
20260506154158 3 306 0.0 3.2 0.00 0.00 0.00 93 1010.1
20260506153655 3 306 0.0 3.2 0.00 0.00 0.00 93 1010.1
20260506153159 3 306 1.6 3.2 0.00 0.00 0.00 93 1010.1
20260506153155 3 306 1.6 3.2 0.00 0.00 0.00 93 1010.1
20260506152151 3 306 0.0 3.2 0.00 0.00 0.00 93 1010.1
20260506151651 3 306 0.0 3.2 0.00 0.00 0.00 93 1010.1
20260506151149 3 306 0.0 1.6 0.00 0.00 0.00 93 1010.1
20260506150649 2 306 0.0 1.6 0.00 0.00 0.00 93 1010.1
20260506150143 2 256 0.0 1.6 0.00 0.00 0.00 93 1010.0
20260506145641 2 256 0.0 1.6 0.00 0.00 0.00 93 1010.0
20260506145141 2 256 0.0 1.6 0.00 0.00 0.00 93 1010.0
20260506144639 2 256 0.0 0.0 0.00 0.00 0.00 93 1010.0
20260506144140 2 256 0.0 1.6 0.00 0.00 0.00 93 1010.1
20260506143635 2 256 0.0 1.6 0.00 0.00 0.00 93 1010.0
20260506143135 2 256 0.0 0.0 0.00 0.00 0.00 92 1010.0
20260506142635 2 256 0.0 0.0 0.00 0.00 0.00 92 1010.0
20260506142133 3 256 0.0 0.0 0.00 0.00 0.00 92 1010.0
20260506141632 3 256 0.0 0.0 0.00 0.00 0.00 92 1010.0
20260506141131 3 256 0.0 0.0 0.00 0.00 0.00 92 1010.0
20260506140629 3 256 0.0 0.0 0.00 0.00 0.00 91 1010.0
20260506140129 3 256 0.0 0.0 0.00 0.00 0.00 91 1010.0
20260506135623 3 256 0.0 0.0 0.00 0.00 0.00 91 1010.0
20260506135123 3 256 0.0 0.0 0.00 0.00 0.00 91 1010.0
20260506134617 3 256 0.0 0.0 0.00 0.00 0.00 90 1010.1
20260506134115 3 256 0.0 0.0 0.00 0.00 0.00 90 1010.0
20260506133615 3 256 0.0 0.0 0.00 0.00 0.00 90 1010.0
20260506133113 3 256 0.0 1.6 0.00 0.00 0.00 89 1010.0
20260506132611 3 256 0.0 1.6 0.00 0.00 0.00 88 1009.9
20260506132114 3 256 0.0 0.0 0.00 0.00 0.00 88 1009.9
20260506132110 3 256 0.0 0.0 0.00 0.00 0.00 87 1009.9
20260506131109 4 256 0.0 0.0 0.00 0.00 0.00 86 1009.9
20260506130603 4 256 0.0 0.0 0.00 0.00 0.00 85 1009.9
20260506130100 4 256 0.0 0.0 0.00 0.00 0.00 84 1009.9
20260506125600 4 256 0.0 0.0 0.00 0.00 0.00 84 1009.9
20260506125059 4 256 0.0 0.0 0.00 0.00 0.00 83 1009.9
20260506124601 5 256 0.0 0.0 0.00 0.00 0.00 82 1009.8
20260506124557 4 256 0.0 0.0 0.00 0.00 0.00 82 1009.9
20260506123555 5 256 0.0 3.2 0.00 0.00 0.00 81 1009.8
20260506123056 5 256 0.0 6.4 0.00 0.00 0.00 80 1009.8
20260506122553 5 256 1.6 6.4 0.00 0.00 0.00 79 1009.8
20260506122051 5 258 1.6 6.4 0.00 0.00 0.00 78 1009.8
20260506121551 5 261 3.2 6.4 0.00 0.00 0.00 77 1009.7
20260506121050 5 261 3.2 6.4 0.00 0.00 0.00 76 1009.7
20260506120551 5 286 3.2 6.4 0.00 0.00 0.00 74 1009.6
20260506120052 5 287 1.6 6.4 0.00 0.00 0.00 73 1009.6
20260506120048 5 282 1.6 4.8 0.00 0.00 0.00 72 1009.6
20260506115047 5 291 0.0 3.2 0.00 0.00 0.00 72 1009.6
20260506114545 5 291 1.6 4.8 0.00 0.00 0.00 71 1009.5
20260506114043 5 291 1.6 6.4 0.00 0.00 0.00 70 1009.5
20260506113542 5 291 3.2 6.4 0.00 0.00 0.00 70 1009.4
20260506113041 5 291 3.2 6.4 0.00 0.00 0.00 70 1009.4
20260506112546 5 30 0.0 4.8 0.00 0.00 0.00 70 1009.4
20260506112542 5 290 1.6 4.8 0.00 0.00 0.00 70 1009.4
20260506111540 5 30 0.0 3.2 0.00 0.00 0.00 70 1009.2
20260506111041 5 30 0.0 1.6 0.00 0.00 0.00 68 1009.1
20260506110538 5 30 1.6 4.8 0.00 0.00 0.00 68 1009.1
20260506110039 5 31 1.6 4.8 0.00 0.00 0.00 68 1009.0
20260506105539 5 129 0.0 3.2 0.00 0.00 0.00 68 1009.0
20260506105039 5 129 0.0 0.0 0.00 0.00 0.00 67 1008.9
20260506104543 5 129 1.6 6.4 0.00 0.00 0.00 66 1008.7
20260506104539 5 129 0.0 3.2 0.00 0.00 0.00 67 1008.8
20260506103535 5 129 3.2 6.4 0.00 0.00 0.00 66 1008.7
20260506103039 5 128 4.8 8.0 0.00 0.00 0.00 66 1008.5
20260506103035 5 137 3.2 8.0 0.00 0.00 0.00 67 1008.5
20260506102039 6 120 3.2 8.0 0.00 0.00 0.00 66 1008.4
20260506102035 6 116 3.2 8.0 0.00 0.00 0.00 66 1008.4
20260506101039 6 76 3.2 9.7 0.00 0.00 0.00 65 1008.4
20260506101035 6 102 3.2 9.7 0.00 0.00 0.00 65 1008.4
20260506100034 6 111 3.2 8.0 0.00 0.00 0.00 65 1008.3
20260506095535 6 72 1.6 8.0 0.00 0.00 0.00 65 1008.3
20260506095141 6 145 3.2 8.0 0.00 0.00 0.00 64 1008.2
20260506095039 6 139 3.2 8.0 0.00 0.00 0.00 64 1008.3
20260506095034 6 139 1.6 4.8 0.00 0.00 0.00 64 1008.3
20260506093534 6 127 3.2 8.0 0.00 0.00 0.00 63 1008.2
20260506093034 6 131 3.2 8.0 0.00 0.00 0.00 63 1008.2
20260506092534 6 131 4.8 16.1 0.00 0.00 0.00 63 1008.1
20260506092038 6 170 4.8 14.5 0.00 0.00 0.00 63 1008.0
20260506092034 6 112 4.8 16.1 0.00 0.00 0.00 63 1008.1
20260506091639 6 105 4.8 14.5 0.00 0.00 0.00 63 1007.9
20260506090538 6 163 6.4 12.9 0.00 0.00 0.00 63 1008.0
20260506090534 6 180 4.8 12.9 0.00 0.00 0.00 63 1008.0
20260506085534 6 132 4.8 12.9 0.00 0.00 0.00 63 1007.9
20260506085035 6 143 6.4 14.5 0.00 0.00 0.00 63 1007.8
20260506084533 6 201 6.4 14.5 0.00 0.00 0.00 62 1007.8
20260506084033 6 145 8.0 17.7 0.00 0.00 0.00 63 1007.7
20260506083533 6 199 8.0 19.3 0.00 0.00 0.00 62 1007.7
20260506083037 6 206 8.0 17.7 0.00 0.00 0.00 63 1007.6
20260506083033 6 153 8.0 19.3 0.00 0.00 0.00 63 1007.7
20260506082033 6 137 8.0 20.9 0.00 0.00 0.00 63 1007.6
20260506081532 6 110 8.0 20.9 0.00 0.00 0.00 63 1007.6
20260506081036 6 169 9.7 22.5 0.00 0.00 0.00 63 1007.6
20260506081032 6 154 8.0 17.7 0.00 0.00 0.00 63 1007.5
20260506073527 6 147 8.0 17.7 0.00 0.00 0.00 63 1007.3
20260506073026 6 172 6.4 17.7 0.00 0.00 0.00 63 1007.3
20260506072531 6 141 6.4 19.3 0.00 0.00 0.00 63 1007.1
20260506072527 6 222 6.4 17.7 0.00 0.00 0.00 63 1007.2
20260506071527 6 151 8.0 19.3 0.00 0.00 0.00 63 1007.1
20260506071027 6 174 9.7 24.1 0.00 0.00 0.00 63 1007.0
20260506070528 6 145 9.7 24.1 0.00 0.00 0.00 63 1006.9
20260506061527 7 153 11.3 29.0 0.00 0.00 0.00 61 1006.5
20260506061027 7 162 12.9 25.7 0.00 0.00 0.00 61 1006.5
20260506060527 7 118 11.3 27.4 0.00 0.00 0.00 61 1006.4
20260506051018 8 188 11.3 25.7 0.00 0.00 0.00 60 1005.9
20260506050518 8 148 11.3 25.7 0.00 0.00 0.00 60 1005.9
20260506045018 8 139 11.3 35.4 0.00 0.00 0.00 59 1005.7
20260506044523 8 143 12.9 25.7 0.00 0.00 0.00 59 1005.7
20260506044519 8 174 11.3 24.1 0.00 0.00 0.00 60 1005.7
20260506043519 8 147 12.9 25.7 0.00 0.00 0.00 59 1005.6
20260506043019 8 133 11.3 24.1 0.00 0.00 0.00 59 1005.6
20260506042520 8 124 9.7 24.1 0.00 0.00 0.00 59 1005.5
20260506042020 8 145 11.3 24.1 0.00 0.00 0.00 59 1005.5
20260506041520 8 181 12.9 29.0 0.00 0.00 0.00 58 1005.6
20260506041020 8 189 12.9 33.8 0.00 0.00 0.00 57 1005.5
20260506040524 9 175 11.3 24.1 0.00 0.00 0.00 57 1005.5
20260506040520 9 226 12.9 33.8 0.00 0.00 0.00 58 1005.6
20260506035520 9 184 9.7 20.9 0.00 0.00 0.00 56 1005.4
20260506035023 9 164 9.7 25.7 0.00 0.00 0.00 56 1005.3
20260506035017 9 165 9.7 25.7 0.00 0.00 0.00 55 1005.3